Regional Weather Roundup
Issued by NWS Sioux Falls, SD

Home | Current Version | Previous Version | Graphics & Text | Print | Product List | Glossary On
Versions: 1 2 3 4 5 6 7 8 9 10 11 12 13 14 15 16 17 18 19 20 21 22 23 24 25 26 27 28 29 30 31 32 33 34 35 36 37 38 39 40 41 42 43 44 45 46 47 48 49 50
000
ASUS43 KFSD 041102
RWRFSD

WEATHER ROUNDUP FOR SE SOUTH DAKOTA/SW MINNESOTA/NW IOWA
NATIONAL WEATHER SERVICE SIOUX FALLS SD
600 AM CDT FRI SEP 04 2015

NOTE: "FAIR" INDICATES FEW OR NO CLOUDS BELOW 12,000 FEET WITH NO
SIGNIFICANT WEATHER AND OR OBSTRUCTIONS TO VISIBILITY.


SDZ038>040-050-052>070-041200-
SOUTHEAST SOUTH DAKOTA

CITY           SKY/WX    TMP DP  RH WIND       PRES   REMARKS
BROOKINGS      PTCLDY    72  66  83 SE12      29.82S
CHAMBERLAIN    LGT RAIN  70  65  84 W8        29.72F
HURON          CLOUDY    74  67  78 S10       29.72R
MADISON        FAIR      72  72 100 S12       29.81S
MITCHELL       CLOUDY    74  68  81 S8        29.74S
SIOUX FALLS    MOCLDY    74  67  78 S12       29.81F
WINNER         PTSUNNY   71  62  73 N8        29.71F
YANKTON        MOCLDY    72  64  78 SE8       29.79R
$$

MNZ071-072-080-081-089-090-097-098-041200-
SOUTHWEST MINNESOTA

CITY           SKY/WX    TMP DP  RH WIND       PRES   REMARKS
FAIRMONT       CLEAR     72  46  40 S8        29.88S
JACKSON        CLEAR     72  70  94 S10       29.89S
LUVERNE        PTCLDY    72  68  88 SE6       29.84S
MARSHALL       CLEAR     73  64  73 S13       29.84R
MONTEVIDEO     CLEAR     72  72 100 S8        29.83S
PIPESTONE        N/A    N/A N/A N/A SE7       29.84S
REDWOOD FALLS  CLEAR     72  70  93 SE8       29.84S
TRACY          CLEAR     73  70  88 S10       29.84S
WINDOM         CLEAR     72  68  88 SE9       29.87S
WORTHINGTON    CLEAR     70  64  83 S8        29.87S
$$

IAZ001>003-012>014-020>022-031-032-NEZ013-014-SDZ071-041200-
NORTHWEST IOWA

CITY           SKY/WX    TMP DP  RH WIND       PRES   REMARKS
DENISON        CLEAR     72  68  88 S9G17     29.87S
ESTHERVILLE    CLEAR     70  68  93 S9        29.89S
SIOUX CITY     CLOUDY    73  66  78 SE5       29.86R
SPENCER        CLEAR     71  67  87 SE8       29.88S
$$

ABBREVIATIONS USED IN REMARKS
   TC - TEMPERATURE IN CELSIUS
  WCI - WIND CHILL INDEX
   HX - HEAT INDEX
  VSB - VISIBILITY



USA.gov is the U.S. government's official web portal to all federal, state and local government web resources and services.